Location: CNYAC Observatory
(43.2150°N, 74.9500°W)
Time: 03:37:14
(UTC-04:00)

Daily predictions for brighter satellites

Satellite Brightness Start Highest point End
(mag) Time Altitude Azimuth Time Altitude Azimuth Time Altitude Azimuth
ALOS 2 3.0 00:07:05 52° E 00:07:14 52° ENE 00:11:31 10° N
Cosmos 1544 4.4 00:04:50 10° NNW 00:07:57 34° W 00:07:57 34° W
Lacrosse 5 rocket 4.5 00:06:24 10° NNW 00:08:34 14° N 00:10:47 10° NE
H-2A R/B 3.8 00:07:09 17° WSW 00:08:40 19° W 00:12:17 10° NW
NOSS 3-2 (C) 3.6 00:08:05 51° SE 00:08:48 53° ESE 00:15:14 10° NE
Cosmos 1408 Rocket 3.8 00:09:33 58° E 00:09:33 58° E 00:13:45 10° NNE
Cosmos 1417 Rocket 4.4 00:04:20 10° N 00:10:29 76° E 00:11:56 54° SSE
Cosmos 1689 Rocket 4.0 00:13:13 31° NNE 00:13:13 31° NNE 00:15:16 10° N
Cosmos 1553 Rocket 4.2 00:09:21 10° N 00:15:40 64° E 00:17:19 48° SE
Cosmos 2082 Rocket 3.5 00:18:14 25° E 00:18:14 25° E 00:22:36 10° NE
Helios 1A Rocket 4.1 00:15:07 10° NNE 00:18:03 32° ENE 00:18:03 32° ENE
Cosmos 1707 3.5 00:24:10 46° WNW 00:24:10 46° WNW 00:27:46 10° N
Cosmos 1833 Rocket 4.2 00:25:27 22° E 00:25:27 22° E 00:29:32 10° NE
Cosmos 1943 Rocket 3.9 00:23:06 10° WNW 00:26:45 18° W 00:27:40 17° WSW
SL-8 R/B 4.2 00:25:10 10° WNW 00:28:56 48° W 00:28:56 48° W
Cosmos 468 Rocket 3.8 00:29:34 10° NNW 00:34:51 80° WSW 00:35:15 74° SSW
Cosmos 1743 Rocket 4.0 00:37:16 52° ENE 00:37:16 52° ENE 00:41:16 10° NNE
ISS -0.4 00:35:51 10° NW 00:38:14 18° N 00:40:35 10° NE
Meteor 1-24 Rocket 3.9 00:39:21 53° SW 00:40:43 72° W 00:46:40 10° N
Cosmos 1814 Rocket 3.9 00:37:02 10° NNW 00:42:20 79° WSW 00:42:46 73° SSW
S3M 3.9 00:36:49 10° N 00:43:04 80° W 00:44:21 58° SSW
Cosmos 2266 Rocket 4.3 00:41:55 46° SE 00:43:17 55° E 00:49:32 10° NNE
H-2A R/B 3.0 00:45:48 10° N 00:49:07 48° NW 00:49:07 48° NW
Landsat 5 3.9 00:50:14 54° NW 00:50:14 54° NW 00:53:34 10° NNW
Cosmos 1378 3.9 00:51:52 50° NNW 00:51:52 50° NNW 00:54:54 10° N
Cosmos 1766 Rocket 4.0 00:51:41 54° W 00:51:42 54° W 00:56:07 10° N
NOSS 3-2 (A) 3.7 00:50:04 37° WSW 00:52:38 69° NW 00:59:21 10° NNE
Cosmos 1500 Rocket 4.0 00:54:40 53° ENE 00:54:40 53° ENE 00:58:29 10° NNE
Cosmos 1428 Rocket 4.5 00:53:12 53° SW 00:54:37 72° W 01:00:50 10° N
Timation 2 Rocket 4.1 00:54:33 52° SSW 00:56:28 88° ESE 01:03:19 10° NNE
CZ-2C R/B 3.0 00:51:33 10° NNE 00:56:56 49° E 00:57:28 48° ESE
Cosmos 1076 Rocket 4.3 00:57:52 40° WNW 00:57:52 40° WNW 01:01:50 10° N
Cosmos 2221 4.0 00:54:44 10° NNW 00:58:04 26° W 00:58:04 26° W
Cosmos 1486 Rocket 3.9 00:58:22 67° WSW 00:58:57 76° WNW 01:04:11 10° NNE
Cosmos 1328 Rocket 3.6 00:55:15 10° N 00:59:20 76° NNW 00:59:20 76° NNW
CZ-4C R/B 2.5 00:58:46 42° WSW 01:00:32 63° NW 01:06:35 10° NNE
Meteor 2-20 4.4 01:00:24 59° SSE 01:01:37 79° E 01:07:49 10° N
Cosmos 1066 4.5 01:03:22 69° SSE 01:04:00 80° E 01:09:29 10° NNE
Cosmos 1818 3.7 01:03:10 10° NW 01:08:30 56° WSW 01:08:30 56° WSW
In-Cosmos 22 4.0 01:08:53 68° S 01:09:39 89° ESE 01:15:22 10° N
Cosmos 2344 3.6 01:07:08 46° S 01:09:41 72° ESE 01:18:24 10° NE
Cosmos 1515 Rocket 3.6 01:08:40 10° N 01:12:52 74° NW 01:12:52 74° NW
Cosmos 1763 Rocket 3.4 01:09:10 10° NNW 01:14:29 76° WSW 01:14:50 72° SW
CZ-4B R/B 3.7 01:17:49 20° WNW 01:17:49 20° WNW 01:19:42 10° NW
Lacrosse 5 2.5 01:14:06 10° NW 01:19:04 52° NE 01:21:51 24° ESE
Meteor 1-21 Rocket 4.1 01:18:19 64° SSW 01:19:15 85° W 01:24:58 10° N
Cosmos 2369 3.9 01:14:08 10° NW 01:19:37 53° WSW 01:19:53 52° WSW
Cosmos 2228 Rocket 4.1 01:17:01 10° NNW 01:20:39 36° WNW 01:20:39 36° WNW
PSLV R/B 4.3 01:23:11 60° ENE 01:23:11 60° ENE 01:27:18 10° N
Genesis I 4.0 01:20:39 10° NW 01:23:34 47° NW 01:23:34 47° NW
Meteor 2-2 Rocket 4.2 01:27:50 10° NNW 01:33:33 71° W 01:34:29 59° SSW
Cosmos 724 4.2 01:34:02 59° SW 01:35:12 87° WNW 01:41:08 10° NNE
Cosmos 1980 Rocket 2.6 01:34:57 10° NNW 01:40:32 59° ENE 01:42:54 33° SE
Cosmos 1908 3.9 01:39:28 10° NNW 01:42:27 47° NW 01:42:27 47° NW
Cosmos 1867 4.2 01:42:42 36° W 01:44:30 50° NW 01:49:51 10° NNE
Cosmos 1805 Rocket 3.9 01:45:16 52° ESE 01:45:26 53° E 01:49:46 10° NNE
Cosmos 1354 Rocket 4.4 01:45:26 47° WSW 01:46:28 56° WNW 01:51:42 10° NNE
Lacrosse 5 rocket 3.2 01:45:06 10° NNW 01:48:59 32° NNE 01:53:01 10° E
ERS-2 4.3 01:48:28 10° NE 01:50:59 17° E 01:51:01 17° E
CENTAUR R/B 2.5 01:50:42 52° S 01:52:12 69° ESE 01:59:01 10° NE
Cosmos 1503 Rocket 4.5 01:51:14 44° WSW 01:52:23 52° WNW 01:57:35 10° N
Cosmos 1633 Rocket 4.0 01:52:36 37° ESE 01:53:05 38° E 01:57:12 10° NNE
USA 32 3.9 01:48:38 10° N 01:53:55 86° W 01:54:47 63° S
Cosmos 2058 3.0 01:54:35 65° E 01:54:35 65° E 01:58:42 10° NNE
Cosmos 841 Rocket 4.3 01:49:51 10° NW 01:54:33 37° W 01:54:33 37° W
Cosmos 1300 3.2 01:51:39 10° N 01:55:21 53° ENE 01:55:21 53° ENE
Cosmos 1707 Rocket 3.5 01:54:24 10° N 01:58:46 72° E 01:59:05 68° ESE
BREEZE-M DEB (TANK) 3.7 01:56:22 10° NW 01:59:00 53° NNE 02:06:15 10° ESE
Cosmos 1441 Rocket 4.0 02:00:22 43° WNW 02:00:22 43° WNW 02:03:54 10° N
Cosmos 968 Rocket 4.3 01:59:30 34° SE 02:00:28 37° ESE 02:05:11 10° NE
Cosmos 1697 Rocket 2.7 01:55:00 10° NNW 02:00:36 62° WSW 02:01:24 56° SSW
Cosmos 1437 Rocket 3.6 01:57:51 10° NNW 02:00:53 41° WNW 02:00:53 41° WNW
Cosmos 2082 Rocket 2.8 02:00:03 37° WSW 02:01:48 48° WNW 02:07:19 10° NNE
Cosmos 1666 Rocket 3.7 02:02:21 58° ESE 02:02:38 59° E 02:06:54 10° NNE
CZ-2C R/B 3.3 02:05:11 51° SW 02:06:05 57° W 02:11:43 10° NNW
Cosmos 1151 Rocket 4.0 02:02:34 10° NNW 02:06:00 33° WNW 02:06:00 33° WNW
Cosmos 2151 3.3 02:06:59 52° W 02:06:59 52° W 02:11:10 10° N
Cosmos 1833 Rocket 3.1 02:07:07 40° WSW 02:08:46 55° WNW 02:14:19 10° NNE
ATLAS 5 CENTAUR R/B 3.9 02:14:07 14° ESE 02:15:13 15° ESE 02:18:05 10° ENE
ISS -1.2 02:12:30 10° NW 02:15:24 29° NNE 02:18:19 10° E
ASTEX 1 3.4 02:11:18 10° N 02:16:14 65° W 02:17:04 55° SW
Cosmos 1726 2.1 02:16:06 10° N 02:19:41 77° NE 02:19:41 77° NE
Cosmos 332 Rocket 3.6 02:16:17 10° NNW 02:21:06 79° WSW 02:21:55 60° S
Cosmos 1455 4.1 02:19:18 10° NNE 02:22:30 25° ENE 02:24:09 19° ESE
Cosmos 1538 Rocket 4.0 02:19:54 10° NNW 02:25:08 77° ENE 02:27:25 35° SSE
Cosmos 1674 4.4 02:25:43 22° WNW 02:25:43 22° WNW 02:28:31 10° NNW
Cosmos 2360 4.1 02:23:15 10° NNW 02:28:59 84° WSW 02:31:29 35° SSE
Landsat 4 3.6 02:30:13 70° W 02:30:13 70° W 02:33:48 10° NNW
IRS-P3 4.4 02:25:50 10° NNE 02:31:09 62° ESE 02:33:03 38° SSE
Cosmos 1745 Rocket 4.0 02:29:28 41° SSW 02:31:54 83° W 02:38:18 10° N
Sich 1 3.0 02:31:28 63° SW 02:32:05 75° W 02:36:33 10° N
SL-16 R/B 4.5 02:29:12 10° ESE 02:34:15 26° ENE 02:39:18 10° N
SL-08 R/B 3.8 02:33:33 28° SE 02:36:01 61° ENE 02:40:53 10° N
CZ-2C R/B 4.2 02:32:27 10° N 02:36:51 25° WNW 02:39:00 19° W
Nadezhda 1 Rocket 3.9 02:31:10 10° N 02:37:21 82° W 02:40:02 36° S
Cosmos 1777 Rocket 4.5 02:38:05 35° SSE 02:40:00 53° ESE 02:45:09 10° NNE
Cosmos 1626 3.3 02:40:53 30° SE 02:41:50 35° E 02:45:18 10° NNE
Cosmos 773 Rocket 4.3 02:37:41 10° NNW 02:42:48 63° ENE 02:46:33 18° SE
Cosmos 1709 Rocket 4.5 02:39:54 25° SSE 02:43:32 56° E 02:49:37 10° NNE
SL-16 R/B 2.4 02:37:57 10° NNW 02:43:39 71° ENE 02:48:35 14° SSE
USA 161 3.8 02:43:31 14° E 02:43:57 15° ENE 02:45:26 10° NNE
JB-3 4.3 02:43:15 10° N 02:47:14 70° WNW 02:47:48 59° SW
CBERS-1 4.3 02:43:55 10° NNE 02:49:00 62° E 02:51:14 33° S
SL-14 R/B 3.7 02:51:16 42° W 02:51:31 42° WNW 02:55:13 10° N
Cosmos 1862 Rocket 3.7 02:47:36 10° N 02:52:06 71° E 02:54:04 32° SSE
Cosmos 2322 Rocket 2.1 02:49:37 10° NNW 02:55:17 88° WSW 02:59:24 19° SSE
Cosmos 1869 3.8 02:52:22 10° N 02:56:17 55° E 02:58:10 27° SE
ARIANE 5 R/B 4.0 02:52:16 10° NE 02:56:42 29° E 03:00:18 14° SSE
Lacrosse 5 2.8 02:57:24 10° WNW 03:00:56 29° WSW 03:00:56 29° WSW
PSLV R/B 4.4 02:57:40 10° N 03:01:58 40° WNW 03:03:15 32° WSW
Cosmos 1703 3.5 03:02:50 47° WSW 03:03:33 55° W 03:07:28 10° N
USA 215 3.2 02:58:23 10° NE 03:04:57 80° SE 03:08:42 28° SW
ADEOS 3.8 03:01:49 10° NNE 03:07:02 65° ESE 03:09:58 26° S
Cosmos 1271 Rocket 2.6 03:05:38 10° NNW 03:09:24 65° W 03:10:13 49° SSW
Abrixas 4.4 03:09:24 13° WNW 03:11:42 29° N 03:14:29 10° ENE
Cosmos 371 Rocket 3.8 03:07:31 10° NW 03:12:01 38° WSW 03:13:02 34° SW
CZ-2D R/B 3.4 03:14:23 10° NNE 03:19:09 34° E 03:23:55 10° SSE
EO 1 Del DPAF 4.2 03:16:18 10° SE 03:20:02 47° ENE 03:23:48 10° N
Cosmos 1346 3.8 03:20:28 33° SSE 03:21:27 48° E 03:24:27 10° NNE
Cosmos 304 Rocket 3.9 03:19:05 10° NNW 03:23:57 78° ENE 03:28:46 10° SSE
Cosmos 1980 Rocket 3.5 03:19:58 10° NW 03:24:02 21° W 03:24:36 20° WSW
ERS-2 3.2 03:21:32 10° N 03:24:53 32° WNW 03:25:52 28° W
Cosmos 2360 Rocket 2.7 03:19:43 10° NNW 03:25:19 61° ENE 03:30:53 10° SE
ATLAS CENTAUR R/B 3.7 03:21:18 10° NNW 03:25:31 30° NE 03:29:28 10° ESE
BREEZE-M DEB (TANK) 3.3 03:21:15 10° WNW 03:25:47 40° N 03:28:04 10° E
Lacrosse 5 rocket 1.7 03:24:11 10° WNW 03:28:25 49° SW 03:32:49 10° SSE
Cosmos 1933 3.6 03:25:00 10° N 03:29:01 68° E 03:32:16 15° SSE
NPP 4.1 03:23:57 10° N 03:29:09 50° WNW 03:32:03 25° SW
Cosmos 2112 Rocket 3.9 03:27:19 10° NNW 03:32:33 89° WSW 03:37:45 10° SSE
Meteor 1-4 Rocket 3.5 03:29:45 10° NNW 03:33:08 32° W 03:33:52 29° WSW
AQUA 4.4 03:34:19 10° N 03:38:49 43° WNW 03:41:20 23° SW
Cosmos 2181 Rocket 4.1 03:33:16 10° NNW 03:39:19 61° W 03:44:14 16° SSW
OAO 3 Rocket 4.0 03:40:41 25° SSW 03:41:54 29° S 03:45:57 10° SE
Cosmos 2292 Rocket 3.1 03:41:40 33° SW 03:42:47 51° WNW 03:46:24 10° N
Cosmos 2322 3.8 03:37:14 10° NNW 03:43:00 82° ENE 03:48:44 10° SSE
Cosmos 2219 4.1 03:38:06 12° S 03:43:02 43° ESE 03:48:27 10° NE
CENTAUR R/B 4.0 03:37:54 10° W 03:43:30 31° NW 03:49:42 10° NNE
Cosmos 1703 Rocket 3.4 03:42:56 10° NNW 03:47:18 75° W 03:51:01 14° S
UNK 3.8 03:45:12 10° SSE 03:49:46 80° ENE 03:54:22 10° N
ISS -3.3 03:48:49 10° WNW 03:52:01 55° SW 03:55:12 10° SE
Cosmos 1455 3.6 03:55:14 10° NW 03:58:06 21° W 03:59:09 18° WSW
ATLAS 5 CENTAUR R/B 2.0 03:55:40 20° SW 03:59:07 73° NW 04:04:27 10° NNE
USA 129 2.1 04:03:47 30° NNW 04:03:47 30° NNW 04:04:40 10° NNW
Cosmos 2298 Rocket 4.1 04:03:22 13° SSW 04:08:08 84° ESE 04:13:30 10° NNE
Resurs 1-4 Rocket 2.1 04:03:33 10° NNE 04:08:55 86° WNW 04:14:13 10° SSW
USA 229 DEB 4.0 04:03:01 13° SSW 04:09:14 67° ESE 04:16:11 10° NE
USA 229 4.0 04:03:06 13° SSW 04:09:21 66° ESE 04:16:17 10° NE
BREEZE-M DEB (TANK) 3.8 04:00:49 10° W 04:09:24 68° N 04:12:39 10° E
Cosmos 2074 Rocket 4.0 04:03:56 11° SSW 04:09:52 73° W 04:16:09 10° N
Okean 1-7 3.0 04:06:30 10° NNW 04:10:53 68° W 04:15:11 10° S
COSMOS 2428 3.0 04:08:39 10° NNW 04:14:21 74° ENE 04:20:00 10° SSE
USA 161 3.4 04:14:46 11° W 04:14:46 11° W 04:15:16 10° WNW
Cosmos 1833 4.4 04:10:11 15° SW 04:14:57 61° WNW 04:20:39 10° NNE
Cosmos 2184 Rocket 4.1 04:09:43 10° SSW 04:15:59 68° W 04:22:20 10° N
Cosmos 1626 4.1 04:15:37 12° WSW 04:17:26 15° WNW 04:19:43 10° NNW
SL-16 R/B 2.7 04:11:20 10° S 04:17:28 57° W 04:23:39 10° NNW
Cosmos 1680 Rocket 4.4 04:15:08 10° NW 04:19:34 29° W 04:24:00 10° SSW
SL-08 ROCKET BODY 4.5 04:14:25 10° SSW 04:20:27 73° W 04:26:37 10° N
Cosmos 1892 3.8 04:17:26 10° SSE 04:21:09 44° E 04:24:51 10° NNE
SL-23 DEB 4.1 04:21:54 10° NW 04:25:05 65° NNE 04:29:27 10° ESE
GPS 2-05 Rocket1 4.2 04:24:25 14° SW 04:26:18 22° S 04:29:01 10° SE
SL-16 R/B 3.7 04:23:35 10° WNW 04:27:05 17° W 04:30:22 11° SW
UNKNOWN OBJECT B 2.8 04:25:42 10° N 04:29:29 64° WNW 04:33:19 10° SSW
SME Rocket 3.7 04:24:10 10° S 04:30:43 72° WSW 04:35:14 10° NNW
Okean O Rocket 1.8 04:26:34 10° NNE 04:31:01 75° ESE 04:35:24 10° S
Cosmos 2237 Rocket 4.0 04:26:22 10° N 04:31:37 36° ENE 04:36:49 10° ESE
Cosmos 1674 Rocket 4.3 04:28:13 10° N 04:32:28 54° E 04:36:42 10° SSE
ARIANE 5 R/B 3.4 04:31:15 10° N 04:35:51 35° WNW 04:40:23 10° SW
Cosmos 2237 4.2 04:31:01 10° NNW 04:36:45 73° WSW 04:42:26 10° SSE
Cosmos 2322 Rocket 4.0 04:36:27 10° WNW 04:38:25 12° W 04:40:22 10° WSW
IRS-1D 4.4 04:35:03 10° N 04:39:56 37° WNW 04:44:46 10° SW
GP-B 4.2 04:36:57 10° NNE 04:41:16 48° E 04:45:34 10° SSE
Thor Agena Rocket 3.6 04:36:02 10° SSE 04:41:20 84° WSW 04:46:39 10° NNW
Meteor 2-3 Rocket 3.9 04:38:57 10° SSW 04:44:40 65° WNW 04:50:28 10° N
IRS-1C Rocket 4.2 04:39:30 10° N 04:44:47 74° WNW 04:50:03 10° SSW
Cosmos 2219 Rocket 2.7 04:41:38 10° NNW 04:47:14 68° ENE 04:52:47 10° SSE
USA 215 4.2 04:41:38 10° NE 04:47:38 41° NNW 04:53:38 10° W
Abrixas 3.9 04:45:17 10° WNW 04:48:15 42° NNE 04:51:14 10° E
Cosmos 1898 Rocket 3.9 04:45:35 10° SW 04:50:37 50° WNW 04:55:40 10° N
BREEZE-M DEB (TANK) 3.1 04:41:07 10° SW 04:50:52 70° SSE 04:53:59 10° ENE
H-2A R/B 4.4 04:45:14 10° WSW 04:52:17 44° S 05:39:03 10° ESE
